Погода в Днепровке

Россия / Республика Крым     45°42′59″N   34°21′53″E
темп.,
°C
ветер,
м/с
пор.,
м/с
влажн.,
%
обл.,
%
осадки,
мм/ч
давл.,
гПа
погр.,
м
20 мая, пт
пт2000:00+11з4473100 0.0 102266
03:00+13з41067100 0.0 1021209
06:00+13з497312 0.0 1021243
09:00+18з58575 0.0 1022680
12:00+20сз783798 0.0 10221659
15:00+21зсз674172 0.0 10211795
18:00+20з56495 0.0 10201015
21:00+14юз496354 0.0 1021169
21 мая, сб
сб2100:00+13юз51265100 0.0 1020254
03:00+14юз6146694 0.0 1019336
06:00+14юз716735 0.0 1017368
09:00+19юз914570 0.0 1016650
12:00+23юз10134675 0.0 10151100
15:00+22юз101444100 0.0 10141090
18:00+19юз91658100 0.0 1013663
21:00+16юз8175299 0.0 1012416
22 мая, вс
вс2200:00+15зюз716535 0.0 1011419
03:00+14зюз61365100 0.0 1010325
06:00+14зюз477799 0.0 1008267
09:00+18з357410 0.8 1007567
12:00+20сз5645100 0.0 10071201
15:00+21зсз7949100 0.0 10051115
18:00+20зсз9125128 0.0 10051654
21:00+16сз611605 0.0 1006458
23 мая, пн
пн2300:00+11зсз35766 0.0 100683
03:00+9з388263 0.0 1006161
06:00+12з3877100 0.1 1006479
09:00+13сз577590 0.4 1006556
12:00+16сз566089 0.3 10061142
15:00+17сз565598 0.9 10061463
18:00+15сз576899 0.9 1007930
21:00+12ссз3485100 1.4 100975
24 мая, вт
вт2400:00+12ссв4883100 0.6 1010306
03:00+12с3683100 0.6 1011211
06:00+10с378599 0.0 1013185
09:00+14ссв67605 0.0 1015850
12:00+17ссв554386 0.0 10152179
15:00+17ссз343541 0.0 10162029
18:00+17с564315 0.0 10171737
21:00+12ссз3462100 0.0 101846